Regional Weather Roundup
Issued by NWS

Home | Current Version | Previous Version | Text Only | Print | Product List | Glossary Off
Versions: 1 2 3 4 5 6 7 8 9 10 11 12 13 14 15 16 17 18 19 20 21 22 23 24 25 26 27 28

000
ASUS45 KCYS 161510
RWRWY

WYOMING REGIONAL WEATHER ROUNDUP
NATIONAL WEATHER SERVICE CHEYENNE WY
800 AM MST TUE JAN 16 2018

NOTE:  "FAIR" INDICATES FEW OR NO CLOUDS BELOW 12,000 FEET
WITH NO SIGNIFICANT WEATHER AND/OR OBSTRUCTIONS TO VISIBILITY.

WYZ001-161600-
YELLOWSTONE NATIONAL PARK

CITY           SKY/WX    TMP DP  RH WIND       PRES   REMARKS
LK YELLOWSTONE   N/A    -13 -18  78 CALM      30.35S
W YELLOWSTONE  NOT AVBL

$$
WYZ002>013-054>058-071-098>099-161600-
NORTHERN WYOMING

CITY           SKY/WX    TMP DP  RH WIND       PRES   REMARKS
JACKSON        CLOUDY     5   2  87 CALM      30.41S
CODY           FAIR       6   4  91 CALM      30.30F
GREYBULL       FAIR     -10 -14  82 CALM      30.41F
WORLAND        FAIR      -8 -11  86 CALM      30.37F
SHERIDAN       FAIR     -11 -15  82 CALM      30.30F
BUFFALO        FAIR      13  -9  37 S9        30.26F WCI   1
GILLETTE       FAIR       3  -5  69 S17       30.34F WCI -17
HULETT         FAIR       1  -6  71 MISG      30.36F
NEWCASTLE      FAIR      -9 -18  64 CALM      30.47S

$$
WYZ014>020-022>026-101>103-161600-
CENTRAL WYOMING

CITY           SKY/WX    TMP DP  RH WIND       PRES   REMARKS
BIG PINEY      MOCLDY    11   8  88 W5        30.38F WCI   3
PINEDALE       FAIR       3   0  85 CALM      30.39S
DUBOIS         FAIR      10   1  67 NW8       30.28S WCI  -1
LANDER         CLOUDY    11   9  92 CALM      30.36S
RIVERTON       FAIR       6   0  76 CALM      30.37F
CASPER         FAIR      14  -3  47 SW15      30.36F WCI  -1
DOUGLAS        FAIR      -4 -10  75 CALM      30.42F

$$
WYZ021-027>030-104>119-161600-
SOUTHERN WYOMING

CITY           SKY/WX    TMP DP  RH WIND       PRES   REMARKS
EVANSTON       FAIR      11   8  88 E7        30.36S WCI   0
FORT BRIDGER   FAIR       9   7  92 W5        30.40S WCI   0
ROCK SPRINGS   FAIR       5  -2  72 SE5       30.38S WCI  -4
DIXON            N/A      3  -5  71 SE3       30.45S
RAWLINS        FAIR       0  -7  72 CALM      30.38S
LARAMIE        FAIR      -1 -10  65 SE8       30.33S WCI -15
CHEYENNE       FAIR       2  -7  66 W5        30.36S WCI  -8
TORRINGTON     FAIR      -5 -10  79 E3        30.49F

$$




USA.gov is the U.S. government's official web portal to all federal, state and local government web resources and services.